Regional Weather Roundup
Issued by NWS

Home | Current Version | Previous Version | Graphics & Text | Print | Product List | Glossary Off
Versions: 1 2 3 4 5 6 7 8 9 10 11 12 13 14 15 16 17 18 19 20 21 22 23 24 25 26 27 28 29 30 31 32 33 34 35 36 37 38 39 40 41 42 43 44 45 46 47 48 49 50

000
ASUS43 KMKX 290421
RWRWI

WISCONSIN REGIONAL WEATHER ROUNDUP
NATIONAL WEATHER SERVICE MILWAUKEE/SULLIVAN WI
1100 PM CDT WED SEP 28 2016

NOTE: "FAIR" INDICATES FEW OR NO CLOUDS BELOW 12,000 FEET WITH NO
SIGNIFICANT WEATHER AND/OR OBSTRUCTIONS TO VISIBILITY.

WIZ001-002-006>008-014>016-023>028-290500-
NORTHWEST WISCONSIN

CITY           SKY/WX    TMP DP  RH WIND       PRES   REMARKS
SUPERIOR ARPT  CLOUDY    52  50  95 N3        30.40R
ASHLAND        CLOUDY    50  48  93 CALM      30.39R
HAYWARD        CLEAR     46  44  93 E3        30.38R
SIREN          CLOUDY    49  48  95 N3        30.39R
CUMBERLAND     CLEAR     50  45  81 NE5       30.37S
RICE LAKE      CLEAR     51  47  86 CALM      30.38R FOG
CHETEK         NOT AVBL
LADYSMITH      PTCLDY    54  50  88 N9G16     30.37S
EAU CLAIRE     CLOUDY    54  50  86 N8        30.34R
MENOMONIE      CLEAR     51  48  90 N3        30.35S
NEW RICHMOND   CLEAR     51  48  92 NE3       30.36S
OSCEOLA        CLEAR     49  49 100 N3        30.40R
$$

WIZ003>005-009-010-017-018-290500-
NORTH CENTRAL WISCONSIN

CITY           SKY/WX    TMP DP  RH WIND       PRES   REMARKS
MANITOWISH WTR NOT AVBL
ARBOR VITAE    PTCLDY    52  49  90 CALM      30.36R
WOODRUFF       PTCLDY    52  49  90 CALM      30.36R
RHINELANDER    PTCLDY    51  50  96 NE7       30.35R
EAGLE RIVER    MOCLDY    50  50  97 N7        30.35S
LAND O LAKES   PTCLDY    50  49  96 CALM      30.38S
PHILLIPS       CLOUDY    52  51  97 N5        30.36R
TOMAHAWK       MOCLDY    50  47  90 N3        30.36R
MEDFORD        CLOUDY    52  52 100 N8        30.33R
MERRILL        CLEAR     50  50 100 N5        30.34R
$$

WIZ029-030-035-036-043>047-290500-
CENTRAL WISCONSIN

CITY           SKY/WX    TMP DP  RH WIND       PRES   REMARKS
WAUSAU         CLEAR     53  49  86 N7        30.30R
MOSINEE        CLEAR     52  50  93 NE8       30.31R
MARSHFIELD     CLEAR     54  49  83 N8        30.31R
STEVENS POINT  CLEAR     50  49  95 NE9       30.30R
WAUPACA        CLEAR     55  53  94 N7        30.27S
WAUTOMA        CLEAR     53  50  89 N8        30.26R
WISC RAPIDS    CLEAR     52  50  93 NE8       30.30R
CAMP DOUGLAS   PTCLDY    48  47  99 W7        30.28R
$$

WIZ011>013-019>022-031-037>040-048>050-290500-
NORTHEAST WISCONSIN

CITY           SKY/WX    TMP DP  RH WIND       PRES   REMARKS
ANTIGO         CLEAR     49  48  96 NE3       30.32S
SHAWANO        CLEAR     56  51  85 NE13      30.29S
OCONTO         NOT AVBL
STURGEON BAY   PTCLDY    58  55  90 N15       30.26R
GREEN BAY      CLEAR     55  54  96 N14       30.26R
MANITOWOC      CLEAR     57  53  86 MISG      30.21S
APPLETON       CLEAR     54  52  94 N14       30.24R
CLINTONVILLE   CLEAR     54  50  87 NE9       30.28R
OSHKOSH        CLEAR     55  51  86 N13       30.23R
$$

WIZ032>034-041-042-053>061-290500-
SOUTHWEST WISCONSIN

CITY           SKY/WX    TMP DP  RH WIND       PRES   REMARKS
LA CROSSE      CLEAR     56  52  86 N7        30.29R
SPARTA         MOCLDY    52  50  92 N6        30.30R
VIROQUA        CLEAR     49  48  97 N5        30.28R
BOSCOBEL       CLEAR     49  47  93 CALM      30.26R
PRAIRIE DU CHI CLEAR     54  48  81 CALM      30.26S
PLATTEVILLE    CLEAR     50  50 100 N5        30.23S
$$

WIZ056-057-062-063-064-067-068-290500-
SOUTH CENTRAL WISCONSIN

CITY           SKY/WX    TMP DP  RH WIND       PRES   REMARKS
REEDSBURG      NOT AVBL
BARABOO/DELLS  CLEAR     51  48  89 N6        30.25R
LONE ROCK      CLEAR     51  48  89 W3        30.25S
MINERAL POINT  CLEAR     52  50  93 N7        30.23S
MADISON        CLEAR     51  48  89 N8        30.21R
MIDDLETON      CLEAR     54  52  92 N9        30.22R
WATERTOWN      CLEAR     53  53 100 N7        30.19S
MONROE         CLEAR     52  50  93 N12       30.19S
JANESVILLE     CLEAR     55  48  76 N9        30.17R
$$

WIZ051-052-058>065-066-070>072-290500-
SOUTHEAST WISCONSIN

CITY           SKY/WX    TMP DP  RH WIND       PRES   REMARKS
MILWAUKEE      MOCLDY    60  54  80 N20G28    30.15R
WAUKESHA       CLEAR     54  50  87 N9        30.17S
MILWAUKEE/TIMM CLEAR     57  50  77 N18G28    30.17R
RACINE         MOCLDY    57  53  86 N17G24    30.14R
BURLINGTON     CLEAR     54  49  85 N9        30.14S
KENOSHA        CLOUDY    60  55  83 N16G26    30.12R
FOND DU LAC    PTCLDY    58  54  86 N16G22    30.23R
SHEBOYGAN      CLEAR     57  52  83 N12       30.20R
WEST BEND      CLEAR     54  52  94 N9        30.19R
JUNEAU         CLEAR     52  50  93 N12       30.22R
$$

LSZ147-162-290500-
LAKE SUPERIOR

STATION/POSITION TIME  TEMP    WIND        PRES    WAVE
                       AIR SEA DIR/SP/G            HT/PER
                 (UTC) (F)     (DEG/KT/KT) (MB)    (FT/S)
W MID LAKE BUOY  0350   55 54   20/  4/  6 1028.9R   2/ 6
DEVILS ISLAND    0400   53      10/  3/  4 1029.8R
PORT WING        0240   54      CALM  /  1 1028.4R
SAXON HARBOR     0320   54     170/  2/  4 1028.4R
$$

LMZ867-665-643>646-290500-
LAKE MICHIGAN

STATION/POSITION TIME  TEMP    WIND        PRES    WAVE
                       AIR SEA DIR/SP/G            HT/PER
                 (UTC) (F)     (DEG/KT/KT) (MB)    (FT/S)
CHAMBERS ISLAND  0300   59     350/ 21/ 24 1024.0S
N MID LAKE BUOY  0350   63 66   10/ 19/ 23 1023.7R   3/ 4
NORTHPORT PIER   0300   60      10/ 16/ 19 1024.4R
SISTER BAY       0323   58     360/ 15/ 22   N/A
KEWAUNEE LAKESHO 0300   58     360/  8/ 15 1022.7R
SHEBOYGAN LAKESH 0400   58      10/ 22/ 23 1022.1R
PORT WASHINGTON  0300   59     360/  8/ 14 1022.0R
ATWATER BUOY     0400   57 53  360/ 17/ 23 1020.6R
MILWAUKEE LAKESH 0310   59     350/ 18/ 21   N/A
S MID LAKE BUOY  0350   65 69   40/ 23/ 29 1017.7R   7/ 7
KENOSHA   LAKESH 0400   58     360/ 20/ 24 1019.3R
$$

TC  - TEMPERATURE IN CELSIUS
VSB - VISIBILITY IN STATUTE MILES
WCI - WIND CHILL INDEX
HX  - HEAT INDEX





USA.gov is the U.S. government's official web portal to all federal, state and local government web resources and services.